Location: Hackberry
(29.5783°N, 96.8797°W)
Time: 03:14:49
(UTC+00:00)

Explorer 11/Cluster Stage 4 - Pass Details

Date: 18 November 2024
Orbit: 464 x 1202 km, 28.8° (Epoch: 03 December)

Event Time Altitude Azimuth Distance (km) Brightness Sun altitude
Exits shadow 09:56:08 17° 90° (E) 1,694 8.9 -38.6°
Drops below altitude 10° 09:57:11 10° 90° (E) 2,075 9.5 -38.4°
Sets 09:59:18 0° 89° (E) 2,885 10.4 -38.0°
